GW5620 Weather Reports


time (UTC)temp
C
wind
direction
speed
KPH
gust
KPH
rain 1hr
cm
rain 24hr
cm
rain mn
cm
humidity
%
barometer
mb
20260504045505 5 296 0.0 0.0 0.00 0.00 0.00 74 1014.7
20260504045005 5 296 0.0 0.0 0.00 0.00 0.00 73 1014.8
20260504044004 5 296 0.0 0.0 0.00 0.00 0.00 73 1014.8
20260504043505 5 296 0.0 0.0 0.00 0.00 0.00 72 1014.8
20260504043005 5 296 0.0 0.0 0.00 0.00 0.00 72 1014.7
20260504042505 5 296 0.0 0.0 0.00 0.00 0.00 72 1014.8
20260504042005 5 296 0.0 0.0 0.00 0.00 0.00 72 1014.8
20260504041505 5 296 0.0 0.0 0.00 0.00 0.00 71 1014.8
20260504041005 5 296 0.0 0.0 0.00 0.00 0.00 71 1014.7
20260504040505 5 296 0.0 0.0 0.00 0.00 0.00 71 1014.7
20260504035004 6 296 0.0 0.0 0.00 0.00 0.00 70 1014.6
20260504034505 6 296 0.0 0.0 0.00 0.00 0.00 69 1014.6
20260504034004 6 296 0.0 0.0 0.00 0.00 0.00 68 1014.6
20260504033505 6 296 0.0 0.0 0.00 0.00 0.00 68 1014.6
20260504033005 6 296 0.0 0.0 0.00 0.00 0.00 67 1014.7
20260504032505 6 296 0.0 0.0 0.00 0.00 0.00 66 1014.7
20260504032004 6 296 0.0 0.0 0.00 0.00 0.00 65 1014.8
20260504031505 6 296 0.0 0.0 0.00 0.00 0.00 65 1014.7
20260504030005 7 296 0.0 0.0 0.00 0.00 0.00 62 1014.5
20260504025504 7 296 0.0 0.0 0.00 0.00 0.00 61 1014.5
20260504025005 7 296 0.0 0.0 0.00 0.00 0.00 61 1014.4
20260504024505 7 296 0.0 0.0 0.00 0.00 0.00 61 1014.4
20260504023506 8 296 0.0 0.0 0.00 0.00 0.00 61 1014.4
20260504023004 8 296 0.0 0.0 0.00 0.00 0.00 60 1014.4
20260504022504 8 296 0.0 0.0 0.00 0.00 0.00 60 1014.3
20260504021504 8 296 0.0 0.0 0.00 0.00 0.00 59 1014.3
20260504021005 8 296 0.0 0.0 0.00 0.00 0.00 58 1014.2
20260504020004 9 296 0.0 0.0 0.00 0.00 0.00 55 1014.1
20260504015504 9 296 0.0 0.0 0.00 0.00 0.00 53 1014.2
20260504014503 10 296 0.0 0.0 0.00 0.00 0.00 52 1014.0
20260504014004 10 296 0.0 0.0 0.00 0.00 0.00 51 1014.0
20260504013504 10 296 0.0 0.0 0.00 0.00 0.00 51 1013.9
20260504013004 11 296 0.0 0.0 0.00 0.00 0.00 48 1013.9
20260504012504 11 296 0.0 0.0 0.00 0.00 0.00 48 1013.9
20260504011004 11 296 0.0 0.0 0.00 0.00 0.00 43 1013.8
20260504010004 12 296 0.0 0.0 0.00 0.00 0.00 42 1013.7
20260504005504 12 296 0.0 0.0 0.00 0.00 0.00 41 1013.8
20260504005004 12 296 0.0 0.0 0.00 0.00 0.00 41 1013.7
20260504004004 13 296 0.0 0.0 0.00 0.00 0.00 39 1013.7
20260504003504 13 296 0.0 0.0 0.00 0.00 0.00 38 1013.6
20260504003003 13 296 0.0 0.0 0.00 0.00 0.00 38 1013.6
20260504002003 13 294 0.0 0.0 0.00 0.00 0.00 37 1013.5
20260504001504 13 295 0.0 0.0 0.00 0.00 0.00 37 1013.4
20260504001004 13 298 0.0 0.0 0.00 0.00 0.00 36 1013.5
20260504000504 13 298 0.0 0.0 0.00 0.00 0.00 36 1013.4
20260504000003 14 297 0.0 0.0 0.00 0.00 0.00 36 1013.4
20260503235503 14 296 0.0 0.0 0.00 0.00 0.00 35 1013.3
20260503235004 14 328 0.0 1.6 0.00 0.00 0.00 35 1013.3
20260503234008 14 307 0.0 12.9 0.00 0.00 0.00 34 1013.2
20260503233509 14 295 0.0 3.2 0.00 0.00 0.00 34 1013.2
20260503233008 15 290 0.0 4.8 0.00 0.00 0.00 34 1013.2
20260503231508 15 323 0.0 1.6 0.00 0.00 0.00 33 1013.1
20260503231008 15 300 1.6 12.9 0.00 0.00 0.00 33 1013.0
20260503230509 15 308 0.0 12.9 0.00 0.00 0.00 33 1012.8
20260503230008 15 300 1.6 8.0 0.00 0.00 0.00 33 1012.9
20260503225508 15 348 0.0 8.0 0.00 0.00 0.00 32 1012.9
20260503224008 15 305 0.0 11.3 0.00 0.00 0.00 32 1013.0
20260503223508 15 320 1.6 20.9 0.00 0.00 0.00 32 1013.0
20260503223009 16 312 0.0 3.2 0.00 0.00 0.00 33 1013.0
20260503222508 16 291 1.6 14.5 0.00 0.00 0.00 33 1013.0
20260503222009 16 320 1.6 19.3 0.00 0.00 0.00 31 1013.1
20260503221509 16 288 0.0 8.0 0.00 0.00 0.00 33 1013.1
20260503221009 16 279 0.0 1.6 0.00 0.00 0.00 32 1013.2
20260503220009 16 313 0.0 3.2 0.00 0.00 0.00 32 1013.3
20260503215508 16 277 0.0 3.2 0.00 0.00 0.00 32 1013.2
20260503214509 16 309 1.6 19.3 0.00 0.00 0.00 32 1013.2
20260503213508 16 321 1.6 14.5 0.00 0.00 0.00 31 1013.2
20260503213008 16 335 4.8 19.3 0.00 0.00 0.00 32 1013.2
20260503212508 16 338 1.6 19.3 0.00 0.00 0.00 33 1013.2
20260503212009 16 290 4.8 19.3 0.00 0.00 0.00 31 1013.1
20260503211509 16 277 1.6 12.9 0.00 0.00 0.00 33 1013.2
20260503211008 16 294 3.2 12.9 0.00 0.00 0.00 33 1013.1
20260503210508 16 282 9.7 22.5 0.00 0.00 0.00 33 1013.1
20260503210008 15 330 3.2 16.1 0.00 0.00 0.00 32 1013.2
20260503205508 15 274 1.6 19.3 0.00 0.00 0.00 33 1013.2
20260503205008 16 327 4.8 20.9 0.00 0.00 0.00 33 1013.2
20260503204507 15 299 1.6 12.9 0.00 0.00 0.00 33 1013.2
20260503203508 15 314 6.4 20.9 0.00 0.00 0.00 33 1013.3
20260503203007 15 311 3.2 25.7 0.00 0.00 0.00 33 1013.3
20260503202508 15 319 1.6 25.7 0.00 0.00 0.00 34 1013.3
20260503202008 15 317 4.8 27.4 0.00 0.00 0.00 33 1013.4
20260503201508 15 348 9.7 27.4 0.00 0.00 0.00 34 1013.4
20260503201007 15 307 0.0 4.8 0.00 0.00 0.00 34 1013.4
20260503200508 15 304 1.6 11.3 0.00 0.00 0.00 34 1013.6
20260503200008 15 308 0.0 9.7 0.00 0.00 0.00 34 1013.6
20260503195508 15 294 1.6 20.9 0.00 0.00 0.00 32 1013.6
20260503195007 15 294 6.4 20.9 0.00 0.00 0.00 32 1013.8
20260503194508 15 309 0.0 14.5 0.00 0.00 0.00 34 1013.8
20260503194008 15 305 4.8 19.3 0.00 0.00 0.00 34 1013.9
20260503193508 15 330 0.0 8.0 0.00 0.00 0.00 34 1013.9
20260503193008 15 334 8.0 25.7 0.00 0.00 0.00 33 1014.0
20260503192507 15 290 1.6 14.5 0.00 0.00 0.00 33 1014.0
20260503192008 15 328 3.2 19.3 0.00 0.00 0.00 32 1014.1
20260503191508 15 329 4.8 20.9 0.00 0.00 0.00 32 1014.2
20260503191008 15 294 4.8 20.9 0.00 0.00 0.00 32 1014.2
20260503190508 15 329 9.7 25.7 0.00 0.00 0.00 32 1014.2
20260503190008 15 318 9.7 25.7 0.00 0.00 0.00 34 1014.3
20260503185509 15 299 1.6 19.3 0.00 0.00 0.00 33 1014.2
20260503185008 15 293 8.0 25.7 0.00 0.00 0.00 33 1014.4
20260503184507 15 3 1.6 12.9 0.00 0.00 0.00 36 1014.4
20260503184008 15 316 3.2 20.9 0.00 0.00 0.00 32 1014.5
20260503183507 15 350 9.7 29.0 0.00 0.00 0.00 34 1014.5
20260503183007 15 323 0.0 1.6 0.00 0.00 0.00 36 1014.6
20260503182508 14 308 1.6 9.7 0.00 0.00 0.00 37 1014.6
20260503182008 14 293 0.0 20.9 0.00 0.00 0.00 34 1014.7
20260503181507 14 303 3.2 19.3 0.00 0.00 0.00 35 1014.8
20260503181007 14 280 3.2 16.1 0.00 0.00 0.00 35 1014.7
20260503180507 14 307 1.6 19.3 0.00 0.00 0.00 35 1014.7
20260503180008 13 302 3.2 20.9 0.00 0.00 0.00 35 1014.8
20260503175008 13 254 1.6 16.1 0.00 0.00 0.00 36 1015.0
20260503174508 13 296 3.2 25.7 0.00 0.00 0.00 36 1015.0
20260503174007 13 304 11.3 25.7 0.00 0.00 0.00 35 1015.0
20260503173508 13 311 1.6 14.5 0.00 0.00 0.00 36 1015.0
20260503173007 13 336 8.0 20.9 0.00 0.00 0.00 37 1015.1
20260503172508 13 284 4.8 19.3 0.00 0.00 0.00 36 1015.2
20260503172007 13 353 1.6 24.1 0.00 0.00 0.00 37 1015.1
20260503171007 13 291 4.8 20.9 0.00 0.00 0.00 38 1015.1
20260503151007 10 357 4.8 24.1 0.00 0.00 0.00 44 1016.4
20260503150507 10 335 1.6 20.9 0.00 0.00 0.00 46 1016.4
20260503131007 7 323 4.8 14.5 0.00 0.00 0.00 58 1016.8
20260503110506 2 318 0.0 0.0 0.00 0.00 0.00 78 1016.0
20260503090505 2 315 0.0 0.0 0.00 0.00 0.00 75 1014.5
20260503081506 3 272 0.0 0.0 0.00 0.00 0.00 75 1014.4
20260503081005 3 271 0.0 0.0 0.00 0.00 0.00 75 1014.4
20260503080506 3 271 0.0 0.0 0.00 0.00 0.00 75 1014.4